Flag for France Weather past 2 weeks in Limoges, France

48 °F


Feels Like: 44 °F
Forecast: 58 / 69 °F
Wind: 9 mph from Southeast

Location: Limoges Airport

Current Time: Oct 4, 2015 at 9:49:36 AM

Latest Report: Oct 4, 2015 at 9:30 AM

Visibility: 10 mi

Pressure: 30.07 "Hg

Humidity: 87%

Dew point: 45 °F

Location of LimogesLocation

Historic Weather in Limoges — Graph


Limoges temperature yesterday

Maximum temperature yesterday: 57 °F (at 5:00 PM)
Minimum temperature yesterday: 48 °F (at 3:00 AM)
Average temperature yesterday: 51 °F

Past Weeks' High & Low Weather Summary

High70 °F (Sep 30, 3:00 PM)100% (Sep 19, 9:00 AM)30.33 "Hg (Sep 19, 9:00 AM)
Low43 °F (Sep 24, 5:30 AM)40% (Sep 30, 1:00 PM)29.80 "Hg (Sep 22, 1:30 PM)
Average55 °F77%30.13 "Hg
* Reported Sep 19 9:00 AM — Oct 4 9:00 AM, Limoges, Weather by CustomWeather, © 2015

Note: Actual official high and low records may vary slightly from our data, if they occured in-between our weather recording intervals... More about our weather records


Limoges weather history for previous 24 hours

Time TempWeatherWind HumidityBarometerVisibility
9:00 AM
Sun, Oct 4
48 °FSunny.7 mph87%30.07 "Hg10 mi
8:30 AM46 °FClear.6 mph93%30.07 "Hg10 mi
8:00 AM46 °FPassing clouds.3 mph93%30.07 "Hg5 mi
7:30 AM46 °FPassing clouds.5 mph93%30.07 "Hg4 mi
7:00 AM46 °FPassing clouds.6 mph100%30.07 "Hg4 mi
6:30 AM46 °FPassing clouds.5 mph100%30.07 "Hg5 mi
6:00 AM48 °FPassing clouds.5 mph94%30.07 "HgN/A
5:30 AM48 °FPassing clouds.7 mph94%30.07 "HgN/A
5:00 AM48 °FOvercast.6 mph94%30.07 "HgN/A
4:30 AM48 °FOvercast.6 mph94%30.09 "HgN/A
4:00 AM48 °FMostly cloudy.3 mph94%30.09 "HgN/A
3:30 AM48 °FMostly cloudy.3 mph94%30.09 "Hg6 mi
3:00 AM48 °FLow clouds.5 mph94%30.07 "Hg4 mi
2:30 AM48 °FFog.6 mph94%30.07 "Hg3 mi
2:00 AM48 °FLow clouds.5 mph94%30.07 "Hg4 mi
1:30 AM48 °FLow clouds.3 mph100%30.07 "Hg4 mi
1:00 AM48 °FLow clouds.8 mph100%30.07 "Hg4 mi
12:30 AM48 °FMostly cloudy.7 mph94%30.07 "Hg4 mi
11:30 PM
Sat, Oct 3
48 °FPassing clouds.3 mph87%30.07 "HgN/A
11:00 PM48 °FPassing clouds.3 mph94%30.04 "HgN/A
10:30 PM50 °FPassing clouds.5 mph94%30.04 "HgN/A
10:00 PM50 °FPartly cloudy.5 mph94%30.04 "HgN/A
9:30 PM50 °FPassing clouds.5 mph94%30.04 "HgN/A
9:00 PM50 °FPassing clouds.5 mph94%30.01 "HgN/A
8:30 PM50 °FScattered clouds.2 mph94%30.01 "HgN/A
8:00 PM52 °FBroken clouds.6 mph88%29.98 "HgN/A
7:30 PM52 °FPassing clouds.7 mph88%29.98 "HgN/A
7:00 PM54 °FPassing clouds.6 mph82%29.98 "HgN/A
6:30 PM55 °FBroken clouds.5 mph77%29.98 "HgN/A
6:00 PM55 °FPartly sunny.5 mph72%29.98 "HgN/A
5:30 PM57 °FPartly sunny.6 mph67%29.98 "HgN/A
5:00 PM57 °FMore clouds than sun.8 mph72%29.98 "HgN/A
4:30 PM54 °FMostly cloudy.3 mph88%29.98 "HgN/A
4:00 PM54 °FPartly sunny.5 mph82%29.98 "HgN/A
3:30 PM54 °FMostly cloudy.5 mph82%29.98 "HgN/A
3:00 PM54 °FOvercast.7 mph82%29.95 "HgN/A
2:30 PM54 °FPartly sunny.7 mph88%29.95 "HgN/A
2:00 PM54 °FCloudy.5 mph88%29.95 "HgN/A
1:30 PM52 °FMostly cloudy.5 mph94%29.98 "HgN/A
1:00 PM52 °FMostly cloudy.3 mph94%29.95 "HgN/A
12:30 PM52 °FLight rain. Fog.6 mph94%29.98 "Hg3 mi
12:00 PM52 °FFog.8 mph94%29.98 "Hg3 mi
11:30 AM52 °FBroken clouds.8 mph94%29.95 "Hg6 mi
11:00 AM52 °FLight rain. Cloudy.9 mph94%29.92 "HgN/A
10:30 AM48 °FRain. Fog.3 mph100%29.98 "Hg1 mi
10:00 AM50 °FHeavy rain. Partly sunny.6 mph94%29.98 "Hg4 mi
9:30 AM50 °FThundershowers. Cloudy.3 mph94%29.95 "HgN/A
9:00 AM50 °FCool.5 mph94%29.95 "HgN/A
Weather by CustomWeather, © 2015

See weather overviewHow to use our weather pages